Weather History for Caribou, ME

Change the Weather History Date:

Monday, May 7, 2012

  Actual Average Record
Temperature  
Mean Temperature 49 °F 48 °F  
Max Temperature 67 °F 59 °F 85 °F (2013)
Min Temperature 31 °F 38 °F 21 °F (1966)
Degree Days  
Heating Degree Days 16 17  
Month to date heating degree days 123 125  
Since 1 July heating degree days 7751 8891  
Cooling Degree Days 0 0  
Month to date cooling degree days 0 0  
Year to date cooling degree days 0 0  
Moisture  
Dew Point 21 °F    
Average Humidity 45    
Maximum Humidity 75    
Minimum Humidity 14    
Precipitation  
Precipitation 0.00 in 0.09 in 0.59 in (1997)
Month to date precipitation 0.14 0.68  
Year to date precipitation 11.73 10.77  
Snow  
Snow 0.00 in 0.00 in 3.70 in (1966)
Month to date snowfall 0.0 0.2  
Since 1 July snowfall 103.7 108.4  
Snow Depth 0.00 in    
Sea Level Pressure  
Sea Level Pressure 30.09 in    
Wind  
Wind Speed 3 mph (NNE)    
Max Wind Speed 14 mph    
Max Gust Speed 21 mph    
Visibility 10 miles    
Events      
T = Trace of Precipitation, MM = Missing Value Source: NWS Daily Summary

Daily Weather History Graph

Daily Weather History Graph

Search for Another Location

Airport:

Trip Planner

Search our weather history database for the weather conditions in past years. The results will help you decide how hot, cold, wet, or windy it might be!

Date:

Astronomy

May. 07, 2012 Rise Set
Actual Time 5:07 AM EDT 7:50 PM EDT
Civil Twilight 4:32 AM EDT 8:25 PM EDT
Nautical Twilight 3:48 AM EDT 9:10 PM EDT
Astronomical Twilight 2:56 AM EDT 10:02 PM EDT
Moon 10:05 PM EDT (5/7) 6:03 AM EDT (5/7)
Length of Visible Light 15h 53m
Length of Day
14h 43m
Waning Gibbous, 97% of the Moon is Illuminated
May 7
Waning Gibbous
May 12
Last Quarter
May 20
New
May 28
First Quarter
Jun 4
Full

Hourly Weather History & Observations

Time (EDT) Temp. Windchill Dew Point Humidity Pressure Visibility Wind Dir Wind Speed Gust Speed Precip Events Conditions
12:54 AM 41.0 °F 38.0 °F 19.0 °F 41% 30.13 in 10.0 mi North 4.6 mph - N/A   Clear
1:54 AM 37.0 °F - 21.9 °F 54% 30.11 in 10.0 mi Calm Calm - N/A   Clear
2:54 AM 35.1 °F - 21.9 °F 59% 30.12 in 10.0 mi Calm Calm - N/A   Clear
3:54 AM 36.0 °F 33.3 °F 19.9 °F 52% 30.12 in 10.0 mi North 3.5 mph - N/A   Clear
4:54 AM 36.0 °F 31.1 °F 21.0 °F 55% 30.13 in 10.0 mi North 5.8 mph - N/A   Clear
5:54 AM 33.1 °F - 23.0 °F 66% 30.14 in 10.0 mi Calm Calm - N/A   Clear
6:54 AM 34.0 °F - 26.1 °F 73% 30.15 in 10.0 mi Calm Calm - N/A   Clear
7:54 AM 44.1 °F - 28.0 °F 53% 30.16 in 10.0 mi Calm Calm - N/A   Clear
8:54 AM 48.9 °F - 28.0 °F 44% 30.16 in 10.0 mi Calm Calm - N/A   Clear
9:54 AM 55.0 °F - 24.1 °F 30% 30.15 in 10.0 mi Calm Calm - N/A   Clear
10:54 AM 57.9 °F - 21.9 °F 25% 30.14 in 10.0 mi North 4.6 mph - N/A   Clear
11:54 AM 61.0 °F - 19.0 °F 20% 30.13 in 10.0 mi Calm Calm - N/A   Clear
12:54 PM 63.0 °F - 17.1 °F 17% 30.10 in 10.0 mi Variable 4.6 mph - N/A   Clear
1:54 PM 64.0 °F - 17.1 °F 16% 30.09 in 10.0 mi WNW 8.1 mph - N/A   Clear
2:54 PM 66.0 °F - 17.1 °F 15% 30.07 in 10.0 mi North 9.2 mph - N/A   Clear
3:54 PM 66.9 °F - 18.0 °F 15% 30.05 in 10.0 mi NNE 9.2 mph - N/A   Clear
4:54 PM 66.0 °F - 16.0 °F 15% 30.04 in 10.0 mi WSW 5.8 mph - N/A   Clear
5:54 PM 64.9 °F - 18.0 °F 16% 30.04 in 10.0 mi Variable 3.5 mph - N/A   Clear
6:54 PM 64.0 °F - 21.0 °F 19% 30.04 in 10.0 mi SE 4.6 mph - N/A   Clear
7:54 PM 61.0 °F - 19.9 °F 21% 30.04 in 10.0 mi SE 4.6 mph - N/A   Clear
8:54 PM 55.9 °F - 21.9 °F 27% 30.04 in 10.0 mi SSE 5.8 mph - N/A   Clear
9:54 PM 55.9 °F - 21.0 °F 26% 30.04 in 10.0 mi South 3.5 mph - N/A   Clear
10:54 PM 53.1 °F - 21.9 °F 30% 30.05 in 10.0 mi South 3.5 mph - N/A   Clear
11:54 PM 50.0 °F - 23.0 °F 35% 30.04 in 10.0 mi Calm Calm - N/A   Clear